Wind_Speed
33 32 30 28 27 25 24 22 21 20 19 19 18 18 17 17 16 16 16 16 15 15 15 15 15 14 14 13 13 13 13 13 13 13 12 12 11 11 11 10 9 9 8 8 8 8 8 8 8 8 8 8 8 8 8 9 9 9 10 10 10 11 11 12 13 13 14 14 14
34 33 31 29 28 26 25 23 22 21 20 19 18 18 17 17 16 16 16 16 16 16 16 16 15 15 14 14 14 14 14 14 14 13 13 12 12 11 11 11 10 10 9 9 9 9 9 9 8 8 8 8 8 8 8 8 9 9 9 10 10 11 11 12 12 13 13 13 14
35 34 32 31 29 28 26 25 24 22 21 20 19 18 17 17 17 16 16 16 16 16 16 16 16 15 15 15 15 15 15 15 15 14 14 13 12 12 12 11 11 10 10 9 9 9 9 9 9 9 8 8 8 8 8 8 8 8 9 9 10 10 11 11 12 12 13 13 13
36 35 34 32 31 29 28 26 25 23 22 20 19 19 18 18 17 17 17 17 17 17 16 16 16 16 16 16 16 16 16 16 16 15 14 14 13 12 12 12 11 11 10 10 10 10 10 10 10 9 9 8 8 8 8 8 8 8 8 9 9 10 10 11 12 12 12 13 13
37 36 35 33 32 30 28 27 25 24 22 21 20 19 19 19 18 18 17 17 17 17 17 17 17 17 17 17 17 17 17 17 17 16 15 14 14 13 13 12 12 11 11 11 11 11 11 11 10 10 9 9 8 8 8 8 8 8 8 8 9 9 10 10 11 11 12 12 12
39 37 35 34 32 31 29 28 26 25 23 22 21 20 20 20 19 18 18 17 17 17 17 17 18 18 18 18 18 18 18 18 18 17 16 15 14 14 13 13 12 12 12 11 11 11 11 11 11 11 10 9 9 8 8 8 8 8 8 8 8 9 9 10 10 11 11 11 11
39 38 36 35 34 32 30 29 27 26 25 23 22 21 21 20 20 19 18 18 18 18 18 18 18 19 19 19 19 19 19 19 19 18 17 16 15 15 14 14 13 13 12 12 12 12 12 12 11 11 10 10 9 9 8 8 8 8 9 9 9 9 9 9 10 10 10 10 10
41 39 38 36 35 33 32 30 29 27 26 25 24 22 21 21 20 20 19 19 19 19 18 19 19 19 19 20 20 20 20 20 19 19 18 17 16 16 15 15 14 14 13 12 12 12 12 12 11 11 10 10 9 9 8 8 8 8 9 9 9 9 9 9 9 9 9 9 9
42 41 39 38 36 34 33 31 30 29 27 26 25 23 22 22 21 21 21 20 20 20 19 19 19 20 20 20 20 20 20 20 20 20 19 19 18 17 16 16 15 14 14 13 12 12 12 12 11 11 10 10 9 9 8 8 8 8 9 9 9 9 9 9 9 9 9 9 9
44 42 41 39 37 36 34 33 31 30 29 27 26 25 24 23 22 22 22 22 21 21 21 21 21 21 21 21 21 21 21 21 21 21 21 20 19 18 17 17 16 15 14 13 13 12 12 11 11 11 10 9 9 9 8 8 8 8 9 9 9 9 9 9 9 8 8 8 8
45 43 42 40 39 37 36 34 33 31 30 29 28 27 26 25 24 24 24 24 24 23 23 22 22 22 22 22 22 22 22 22 22 22 22 21 20 19 18 18 17 16 15 14 13 12 12 11 11 11 10 9 9 8 8 8 8 8 8 8 9 8 8 8 8 8 8 8 8
45 44 43 42 40 39 37 36 34 33 32 31 30 29 28 27 26 26 26 26 26 25 25 24 24 24 23 23 23 23 23 23 23 23 22 22 21 20 19 18 18 17 16 14 13 12 12 11 11 10 10 9 9 8 8 8 8 8 8 8 8 8 8 8 8 8 8 8 8
46 45 44 43 42 40 39 37 36 35 34 33 32 31 30 29 28 28 28 28 27 27 26 26 26 25 25 25 25 25 24 24 24 23 23 22 22 21 20 19 18 17 16 15 14 13 12 11 10 10 9 9 9 8 8 8 8 8 8 8 8 8 7 7 8 8 8 8 8
47 46 45 44 43 41 40 38 37 36 35 34 33 33 32 31 31 30 30 29 29 29 28 28 27 27 27 26 26 25 25 24 24 23 23 22 22 21 21 20 19 18 17 15 14 13 12 11 10 10 9 9 8 8 8 8 8 8 8 8 8 8 8 8 8 8 9 9 9
47 46 45 45 43 42 41 40 39 38 37 36 35 35 34 34 33 32 32 31 31 30 30 30 29 29 28 27 26 25 25 24 24 23 22 22 22 21 21 20 19 18 17 16 14 13 12 11 11 10 9 9 8 8 8 8 8 9 9 8 8 8 9 9 9 9 9 9 10
47 46 46 45 44 43 42 41 40 39 39 38 37 37 36 36 35 34 34 33 32 32 31 31 30 30 29 28 26 25 25 24 23 23 22 22 22 21 21 20 19 18 17 16 14 13 12 11 11 10 9 8 8 8 8 9 9 9 9 9 9 9 9 10 10 10 10 10 10
46 46 46 45 45 44 43 42 41 41 40 39 39 38 38 37 37 36 35 34 33 33 32 32 31 30 29 27 26 25 24 24 23 22 22 22 21 21 20 20 19 18 17 16 14 13 13 12 11 10 9 8 8 8 9 9 10 10 10 10 10 10 11 11 11 11 11 11 11
45 46 46 45 45 44 43 43 42 42 41 41 40 40 39 38 38 37 36 35 34 33 33 32 31 29 28 27 26 25 24 23 23 22 22 21 21 20 20 19 18 18 16 15 14 14 13 12 11 10 9 8 8 9 9 10 10 11 11 11 11 11 11 11 11 11 11 11 11
44 45 45 45 45 44 44 43 43 42 42 41 41 40 39 39 38 37 36 35 34 33 32 31 30 28 27 26 25 25 24 23 23 22 22 21 20 20 19 18 18 17 16 15 14 13 13 12 11 10 9 9 9 9 10 10 11 11 12 12 12 12 12 12 12 12 12 12 12
43 44 44 44 44 44 44 43 43 42 42 41 41 40 39 39 38 36 35 34 33 32 31 30 29 27 26 25 25 24 23 23 23 22 22 21 20 19 18 18 17 16 15 15 14 13 13 12 11 10 10 9 9 10 10 11 11 12 12 12 12 12 12 12 12 12 12 12 12
42 42 43 43 43 43 43 43 43 42 42 41 41 40 39 38 37 35 34 33 32 31 29 28 27 26 25 25 24 24 23 23 22 22 21 20 20 19 18 17 16 16 15 15 14 13 12 12 11 10 10 10 10 10 11 11 12 12 12 13 13 13 13 13 13 13 12 12 12
41 41 42 42 42 43 43 43 42 42 42 41 41 40 39 37 35 34 32 31 30 29 28 26 26 25 24 24 24 23 23 22 22 21 20 20 19 18 18 17 16 16 15 15 14 13 12 12 11 11 11 10 11 11 11 12 12 12 13 13 13 13 13 13 13 13 13 13 13
40 40 41 41 42 42 42 42 42 42 42 41 40 39 37 35 33 32 30 29 28 27 26 25 25 24 24 23 23 23 22 22 21 20 20 19 19 18 17 17 16 16 15 14 13 13 12 12 11 11 11 11 11 11 12 12 12 12 13 13 13 14 14 14 14 14 14 14 13
39 39 40 41 41 42 42 42 42 42 41 41 39 37 35 32 31 29 28 27 26 26 25 25 24 24 23 23 22 22 21 21 20 20 19 19 18 18 17 17 16 15 14 14 13 12 12 12 12 11 11 11 11 12 12 12 13 13 13 13 14 14 14 14 14 14 14 14 14
38 39 40 40 41 41 41 41 41 41 40 38 36 34 31 30 28 28 27 26 26 25 25 24 24 23 23 22 22 21 21 20 20 19 19 19 18 18 17 16 16 15 14 13 12 12 12 12 12 12 11 12 12 12 12 13 13 14 14 15 15 15 15 15 15 15 15 15 15
38 39 39 40 40 40 40 40 39 38 36 34 32 30 28 27 27 26 26 26 25 25 24 24 23 23 22 22 21 21 21 20 20 19 19 18 18 17 17 16 15 14 13 13 13 12 12 12 12 12 12 12 12 12 13 14 14 15 16 16 16 16 16 16 15 15 15 16 16
38 38 39 39 39 39 39 38 36 34 32 30 29 27 27 26 26 26 26 25 25 24 23 23 22 22 22 22 21 21 21 20 20 19 18 18 17 17 16 15 14 14 13 13 13 13 12 12 12 12 12 12 12 13 13 14 15 16 17 17 17 17 17 17 16 16 16 16 16
38 38 38 38 38 36 35 34 32 30 28 27 27 26 26 26 26 26 25 24 24 23 23 22 22 22 22 21 21 21 20 20 19 19 18 17 17 16 16 15 14 14 13 13 13 13 12 12 12 12 12 13 13 14 14 15 16 17 17 18 18 18 18 18 17 17 17 17 16
37 37 37 36 34 32 31 29 28 27 27 26 26 26 26 26 26 25 24 24 23 23 23 23 22 22 22 21 21 20 20 19 19 18 17 17 16 16 15 15 14 13 13 13 13 13 12 12 13 13 13 14 14 15 16 17 17 18 18 18 18 18 18 18 18 18 18 17 17
35 34 33 31 30 28 27 27 26 26 26 26 26 26 26 26 25 24 24 23 23 23 23 23 22 22 22 21 21 20 20 19 18 18 17 17 16 16 15 15 14 13 13 13 13 13 13 13 13 14 15 15 16 17 17 18 18 18 18 18 18 18 18 18 18 18 18 18 18
31 30 29 27 26 26 26 26 26 26 26 26 26 26 26 25 24 24 24 23 23 23 23 22 22 22 22 21 20 20 19 18 18 17 17 16 16 15 15 14 14 13 13 13 13 13 14 14 15 15 16 17 17 18 18 19 19 19 19 19 19 18 18 18 18 18 18 18 18
28 26 26 25 25 25 26 26 26 26 26 26 26 26 25 25 24 24 24 23 23 23 23 22 22 21 21 20 20 19 18 18 17 17 16 15 15 14 13 13 13 13 13 14 14 15 15 16 17 17 18 18 19 19 19 19 19 19 19 19 19 18 18 18 18 18 17 17 17
25 25 25 25 25 25 26 26 26 26 26 26 26 25 25 25 24 24 24 23 23 22 22 22 21 21 20 20 19 18 18 17 17 16 15 14 14 13 13 13 14 14 15 15 16 16 17 17 18 18 19 19 19 19 19 19 19 19 19 19 18 18 18 17 17 17 16 16 16
24 24 25 25 25 26 26 27 27 26 26 26 25 25 25 24 24 24 23 23 22 22 21 21 20 20 19 19 18 18 17 17 16 15 14 14 14 13 14 14 15 16 16 16 17 17 17 18 18 19 19 19 19 19 19 19 19 19 19 18 18 17 17 16 16 15 15 15 14
24 25 25 26 26 26 27 27 26 26 26 26 25 25 24 24 23 23 23 22 22 21 20 20 20 19 18 18 17 17 16 15 15 14 14 14 14 14 15 15 16 16 16 17 17 17 17 18 18 19 19 19 19 19 18 18 18 18 18 17 17 16 16 15 15 14 14 14 13
24 25 26 26 26 26 26 26 26 26 26 25 25 24 24 23 22 22 22 21 21 20 20 19 19 18 17 16 16 15 15 14 14 14 14 14 14 14 14 15 16 16 16 16 17 17 17 17 18 18 18 18 18 17 17 17 17 17 16 16 15 15 14 14 13 13 13 13 13
25 25 25 26 26 26 26 26 25 25 25 24 24 23 23 22 22 21 21 20 20 19 18 18 17 16 15 14 14 14 13 13 13 13 13 13 13 13 14 15 15 15 15 16 16 16 16 16 17 17 17 16 16 16 16 16 15 15 15 14 14 13 13 13 13 13 13 13 13
25 24 24 25 25 25 25 25 25 24 24 23 23 22 22 21 21 20 19 19 18 17 16 15 15 14 13 13 12 12 12 12 12 12 12 12 13 13 14 14 15 14 15 15 15 15 15 15 15 15 15 15 15 14 14 14 14 14 14 13 13 13 13 13 13 13 14 14 14
24 23 23 23 24 24 24 24 23 23 23 22 22 21 21 20 19 18 18 17 16 15 14 13 13 12 11 11 10 10 10 10 11 11 12 12 13 13 13 14 14 14 13 14 14 14 14 14 14 14 14 14 14 14 14 14 14 13 13 13 13 13 13 14 14 14 15 15 15
23 22 22 22 23 23 23 23 22 22 21 21 20 20 19 18 17 16 16 15 14 13 12 11 11 10 9 9 9 9 9 10 11 11 12 12 12 13 13 13 13 13 13 13 13 13 13 13 13 13 14 14 14 14 14 14 14 14 14 14 14 14 15 15 15 16 16 16 16
22 22 21 22 22 22 22 22 21 20 19 19 18 17 17 16 15 14 13 13 12 11 10 10 9 9 8 8 8 8 9 10 10 11 11 12 12 12 13 13 13 13 12 12 13 13 12 12 13 13 14 14 14 14 14 14 15 15 15 15 15 16 16 16 17 17 17 17 17
Wind_Direction
205 205 203 201 200 199 200 202 203 203 203 203 205 207 207 206 204 205 208 213 216 220 222 224 226 228 229 229 228 229 229 230 230 230 231 232 234 237 240 242 245 248 252 259 266 272 278 284 289 293 298 304 309 314 319 323 326 329 332 335 338 341 343 345 346 348 350 352 354
206 206 205 204 202 202 202 204 205 205 205 206 207 209 210 210 208 208 210 214 218 222 225 227 229 231 232 232 232 231 231 232 232 232 232 233 235 238 241 243 245 248 252 257 263 268 273 278 282 286 290 296 301 307 312 316 320 324 327 330 333 336 338 340 342 344 346 348 351
207 208 207 206 205 204 204 205 206 206 207 208 209 211 213 213 212 212 213 216 220 224 227 230 232 234 235 236 236 235 234 234 234 234 234 234 236 239 242 244 246 248 251 255 260 265 269 273 276 280 283 287 293 298 304 309 313 318 322 325 329 332 334 336 338 340 342 345 347
208 209 209 208 207 206 205 205 206 207 208 209 210 212 214 215 215 215 216 218 221 225 229 231 234 236 238 239 239 239 238 237 237 236 236 236 238 240 242 245 246 247 249 253 257 261 265 269 272 274 278 281 285 290 295 301 307 312 317 322 326 328 331 332 334 336 338 341 343
209 210 210 209 208 207 207 207 208 210 211 212 213 215 216 217 217 217 218 220 222 226 230 233 235 237 239 241 242 242 242 241 240 240 240 239 240 242 244 245 246 247 249 251 255 258 262 265 267 270 272 276 279 283 288 295 302 307 313 318 323 326 328 329 331 332 334 337 340
210 211 211 211 211 210 210 211 212 213 214 215 216 217 218 219 220 220 221 222 224 227 230 233 235 237 240 242 243 245 245 245 244 244 243 243 243 243 244 246 247 248 248 250 253 256 259 262 265 267 269 272 275 279 284 291 298 304 310 314 319 322 324 326 328 329 331 333 336
211 212 212 212 213 213 213 213 214 215 216 218 219 220 221 222 223 223 224 225 226 228 231 234 236 238 239 241 243 245 247 247 248 247 246 246 245 245 245 246 247 248 248 249 251 254 257 260 263 265 267 270 273 277 283 289 296 302 306 310 315 318 321 323 325 327 328 330 333
213 214 214 214 214 214 215 215 216 217 219 220 221 223 224 225 226 227 227 228 229 231 232 234 236 238 239 241 242 244 246 248 249 249 248 247 246 246 246 246 247 247 247 248 250 253 256 259 261 264 266 268 272 276 281 287 293 299 303 307 312 316 319 321 323 324 325 327 330
215 215 216 216 217 217 217 218 218 220 221 222 223 225 226 228 229 230 231 231 232 233 235 236 237 238 240 241 242 243 244 246 248 249 249 248 247 246 246 245 246 246 246 247 248 251 254 257 260 262 265 268 271 274 279 285 290 295 299 304 308 313 316 319 321 322 323 325 328
216 217 217 218 218 219 219 220 221 222 223 225 226 227 229 230 231 233 234 234 235 236 237 238 238 239 240 241 242 243 243 244 246 247 248 248 247 246 245 245 244 244 244 245 246 249 252 255 258 260 263 266 270 273 278 282 287 291 295 300 304 309 313 317 319 321 322 323 325
218 218 219 219 220 220 221 222 223 224 225 227 228 229 231 232 233 234 235 237 237 238 239 240 240 240 241 242 243 243 243 243 244 245 246 246 246 245 244 243 243 242 242 242 243 245 248 251 255 258 261 265 269 273 277 281 285 288 292 296 301 305 309 313 316 318 319 320 321
220 220 220 221 221 222 223 224 225 226 227 229 230 231 232 234 235 236 237 238 238 239 240 241 241 242 242 243 243 243 243 243 242 243 243 244 244 243 242 241 240 240 239 238 239 241 244 247 251 254 258 262 267 271 275 280 283 286 289 293 298 302 306 309 312 314 315 316 317
221 222 222 223 223 224 224 225 226 228 229 230 231 233 234 235 236 237 238 239 240 240 241 241 242 242 242 243 243 242 242 241 241 241 241 242 242 241 240 239 239 237 236 235 235 237 239 243 246 250 255 259 263 268 272 277 281 284 287 291 295 299 302 305 307 309 311 312 313
223 223 224 224 225 225 226 227 228 229 230 232 233 234 235 237 238 238 239 240 240 241 241 241 242 243 243 243 242 241 240 239 239 239 239 239 239 239 238 237 236 235 234 233 232 233 235 239 242 246 251 256 260 265 271 276 280 283 286 289 292 295 298 300 303 305 306 308 310
225 225 225 226 226 226 227 227 229 230 231 233 234 235 237 238 239 240 240 241 241 241 241 241 241 242 243 242 240 239 238 237 237 237 236 236 236 236 235 234 234 233 231 230 229 230 232 234 238 242 247 253 258 264 271 277 280 283 286 288 289 292 294 296 299 301 303 305 307
226 226 227 227 227 228 228 229 230 231 232 234 235 236 238 239 240 241 241 241 241 241 240 240 241 241 241 240 238 236 235 235 235 234 234 234 234 233 232 231 230 229 228 228 227 227 228 230 233 238 243 250 257 264 271 277 281 283 285 286 288 289 291 293 295 297 300 302 305
227 228 228 228 229 229 229 230 231 232 233 234 236 237 238 240 241 241 242 241 241 240 239 240 240 240 239 237 236 234 233 233 232 232 231 231 230 230 229 228 227 226 225 225 224 224 225 226 229 233 239 247 255 264 271 276 280 282 283 285 286 287 289 291 293 295 298 300 303
228 229 229 229 230 230 230 231 232 233 234 235 236 238 239 240 241 242 242 242 241 239 239 239 239 238 237 235 234 232 231 230 229 229 228 227 227 226 225 223 222 222 221 221 221 221 222 224 227 231 237 245 254 263 269 274 277 279 281 283 284 286 288 290 292 294 296 298 300
229 229 230 230 231 231 231 232 233 234 235 236 237 238 240 241 241 242 242 241 240 239 238 238 237 236 234 232 231 230 229 228 226 225 224 223 222 221 220 218 217 217 216 217 217 219 221 224 227 231 237 245 254 262 268 272 275 277 279 281 283 285 287 288 291 293 294 296 297
230 230 230 231 231 232 232 233 234 235 236 237 238 239 240 240 241 241 241 240 239 238 237 236 235 233 231 229 228 227 226 225 223 222 221 219 217 216 215 213 213 212 212 213 215 217 220 224 228 233 239 246 253 260 265 269 272 275 277 280 281 283 285 287 289 291 292 293 294
230 230 231 231 232 232 233 233 234 235 236 237 237 238 239 239 240 240 239 239 238 236 235 233 231 229 227 226 225 224 223 222 220 218 217 216 214 213 211 210 210 209 210 211 214 216 220 225 229 235 240 245 252 257 262 266 269 272 275 278 280 282 284 286 288 288 289 289 290
230 230 231 231 232 232 233 233 234 235 235 236 237 237 237 238 238 238 237 237 235 233 231 229 227 225 224 223 222 221 220 218 216 215 214 213 211 210 209 208 208 208 210 212 215 218 222 227 231 235 240 246 252 257 261 265 268 271 274 277 279 281 283 285 286 286 286 286 287
228 229 230 230 231 232 232 233 233 234 234 235 235 235 235 236 236 235 234 233 231 229 226 223 221 220 219 219 219 218 216 214 213 211 210 209 208 207 206 206 207 209 212 214 218 222 226 230 234 239 243 249 254 259 263 266 269 272 274 277 279 281 283 285 286 286 285 286 286
227 227 228 229 230 231 231 232 232 233 233 233 233 233 234 234 233 232 230 227 225 222 220 218 216 215 215 214 214 213 211 210 208 207 206 206 205 204 204 206 208 211 215 219 223 227 231 235 239 243 248 253 258 262 266 269 271 274 276 278 280 282 283 284 285 285 285 286 287
225 226 227 228 229 230 230 231 231 231 231 231 232 232 232 231 229 227 224 221 218 216 214 213 212 211 210 209 208 207 206 205 205 204 203 203 202 203 205 207 211 214 218 222 226 230 234 239 243 247 252 257 261 265 269 272 275 277 279 280 281 282 283 283 283 284 284 285 287
224 225 226 227 228 229 229 229 229 229 229 230 229 229 227 225 222 219 217 214 212 211 210 209 209 208 207 205 204 203 202 202 202 201 201 201 202 204 207 211 214 217 221 225 229 233 237 241 245 250 254 259 263 268 272 275 278 279 281 282 282 282 282 281 281 281 283 285 287
223 224 225 226 227 226 226 227 227 227 227 227 226 223 220 217 214 212 210 209 208 208 207 206 205 204 204 203 202 201 200 200 200 200 201 203 205 208 211 214 217 220 224 228 231 235 239 242 247 251 256 260 265 269 272 275 277 279 280 280 281 281 280 280 279 280 282 284 286
221 222 223 224 223 223 224 224 224 224 223 222 219 215 212 209 207 206 205 205 205 204 203 202 202 202 201 200 200 199 199 199 199 200 202 205 209 212 215 218 220 223 226 230 233 237 240 244 248 253 258 262 266 269 271 273 275 276 276 277 277 277 278 278 279 280 282 285 287
219 220 220 220 220 220 221 221 220 219 217 214 210 207 205 203 202 202 202 202 201 200 199 199 199 199 198 197 197 197 198 199 200 202 205 208 212 215 218 220 222 224 227 231 235 238 242 246 251 255 259 263 266 268 269 270 271 271 271 272 272 274 275 277 279 281 283 286 287
217 217 217 217 218 218 218 216 214 212 208 205 202 200 199 199 199 199 198 198 198 197 197 196 196 195 194 194 195 196 198 200 202 205 208 211 214 217 219 221 223 225 228 233 237 241 246 250 255 259 262 265 266 267 267 267 267 267 267 268 269 271 273 276 278 281 283 285 287
214 215 215 215 215 214 212 209 206 203 200 198 196 196 196 196 196 195 195 195 194 194 194 194 193 192 193 194 195 197 199 202 204 206 209 211 214 217 220 223 225 228 232 237 243 248 252 257 260 263 264 266 266 266 266 266 265 265 266 267 268 270 272 275 277 280 283 284 286
211 211 211 211 209 207 204 201 198 196 194 193 193 193 193 193 192 192 192 192 192 191 190 190 191 192 193 194 196 198 200 202 204 206 208 210 213 218 223 229 233 237 242 247 252 256 259 262 264 265 265 265 265 265 265 265 265 266 266 267 268 270 272 275 277 280 282 284 286
207 207 206 204 202 200 197 194 192 191 190 190 190 190 190 190 190 189 188 188 189 189 189 189 190 192 193 195 196 198 199 200 202 204 208 212 217 224 231 239 244 249 253 256 259 261 263 264 265 265 264 264 264 264 264 265 265 266 267 268 269 271 273 275 277 279 281 283 285
202 201 200 198 196 193 191 189 188 187 187 187 187 187 188 188 187 186 185 185 186 188 189 189 190 192 193 194 195 197 199 201 204 208 214 220 228 235 242 248 252 256 258 260 261 262 263 263 263 263 263 263 264 264 265 266 266 267 268 269 271 272 273 275 277 279 280 282 283
197 195 194 192 190 188 187 185 184 185 185 185 185 185 185 185 185 184 184 184 185 186 187 188 189 191 193 195 197 200 204 208 214 220 227 233 239 245 249 251 254 256 258 259 260 260 261 262 262 262 263 263 264 264 265 267 268 268 269 270 271 273 274 275 277 278 279 280 282
192 191 189 188 186 185 184 183 182 182 183 183 182 182 182 182 182 182 183 184 184 185 186 187 189 192 195 199 203 209 215 221 227 233 238 242 245 247 249 250 252 254 255 256 257 259 259 260 261 262 262 263 264 265 266 267 268 269 270 270 271 272 274 275 276 277 278 279 281
188 188 187 185 184 182 182 181 181 180 180 181 180 180 179 179 179 180 181 182 184 185 187 189 193 198 203 209 215 220 226 231 236 240 243 244 245 246 247 248 251 253 254 255 256 257 258 259 260 261 262 263 263 264 265 266 267 268 268 269 270 272 273 274 276 277 278 279 281
185 185 185 183 181 180 179 179 178 178 178 178 178 178 178 178 178 179 181 183 185 188 192 196 201 207 212 217 223 227 232 235 239 242 244 245 245 245 246 248 249 251 253 254 255 256 257 258 259 260 261 261 262 263 264 265 266 267 267 268 270 271 273 275 276 278 279 280 282
182 182 181 180 178 176 176 176 176 176 176 175 175 176 176 178 179 181 183 187 191 195 199 203 208 213 217 221 226 231 235 238 241 244 245 246 246 246 246 247 247 248 250 251 252 253 254 256 258 259 260 261 261 262 263 264 265 266 267 269 271 273 275 276 277 279 280 281 283
178 177 176 175 174 173 173 173 173 173 174 175 175 175 177 179 182 185 188 192 196 200 204 207 211 215 219 224 230 236 240 243 244 245 246 246 246 245 245 245 245 245 245 247 249 250 252 253 256 258 260 261 262 263 264 265 267 268 270 272 274 276 277 278 278 279 281 282 284
172 171 170 170 170 170 170 170 171 172 173 175 176 178 179 182 186 189 192 196 200 203 206 209 214 219 225 231 238 243 246 247 246 246 246 245 245 244 244 244 243 243 243 244 246 248 250 252 255 258 260 262 263 264 266 267 269 271 273 275 276 278 278 279 279 280 282 283 285
Height
1521 1522 1524 1525 1526 1528 1529 1530 1531 1532 1533 1534 1535 1536 1537 1538 1539 1540 1541 1542 1543 1544 1544 1545 1546 1547 1547 1548 1549 1549 1550 1550 1551 1551 1551 1552 1552 1552 1553 1553 1553 1553 1554 1554 1554 1554 1554 1554 1555 1555 1555 1555 1555 1555 1555 1555 1555 1555 1555 1555 1555 1555 1555 1554 1554 1554 1554 1554 1554
1519 1521 1522 1524 1525 1526 1528 1529 1530 1531 1532 1533 1534 1535 1536 1537 1537 1538 1540 1541 1541 1542 1543 1544 1545 1546 1546 1547 1547 1548 1548 1549 1550 1550 1550 1551 1551 1551 1552 1552 1552 1552 1553 1553 1553 1553 1554 1554 1554 1554 1554 1554 1554 1554 1554 1554 1554 1554 1554 1554 1554 1554 1554 1554 1554 1554 1554 1553 1553
1518 1519 1521 1522 1523 1525 1526 1527 1528 1529 1530 1531 1533 1534 1535 1536 1536 1537 1538 1539 1540 1541 1542 1543 1544 1544 1545 1546 1546 1547 1547 1548 1548 1549 1549 1550 1550 1551 1551 1551 1551 1551 1552 1552 1552 1553 1553 1553 1553 1553 1553 1553 1553 1553 1553 1553 1553 1553 1553 1553 1553 1553 1553 1553 1553 1553 1553 1553 1553
1516 1517 1519 1520 1521 1523 1524 1525 1526 1528 1529 1530 1531 1532 1533 1534 1535 1536 1537 1538 1539 1540 1541 1541 1542 1543 1544 1545 1545 1546 1546 1547 1547 1548 1548 1549 1549 1549 1550 1550 1551 1551 1551 1551 1551 1552 1552 1552 1552 1552 1553 1553 1553 1553 1553 1553 1553 1553 1552 1552 1552 1552 1552 1552 1552 1552 1552 1552 1552
1514 1516 1517 1518 1520 1521 1523 1524 1525 1526 1528 1529 1530 1531 1532 1533 1534 1534 1535 1536 1537 1538 1539 1540 1541 1541 1542 1543 1544 1545 1545 1546 1546 1547 1547 1548 1548 1548 1549 1549 1549 1550 1550 1550 1551 1551 1551 1551 1551 1552 1552 1552 1552 1552 1552 1552 1552 1552 1552 1552 1552 1552 1552 1552 1552 1552 1552 1552 1551
1512 1514 1516 1517 1519 1520 1521 1523 1524 1525 1526 1527 1528 1529 1530 1531 1532 1533 1534 1535 1536 1537 1538 1538 1539 1540 1541 1542 1542 1543 1544 1545 1545 1546 1546 1546 1547 1547 1548 1548 1548 1549 1549 1549 1550 1550 1550 1551 1551 1551 1551 1551 1551 1551 1551 1551 1551 1551 1551 1551 1551 1551 1551 1551 1551 1551 1551 1551 1551
1510 1512 1514 1515 1517 1518 1520 1521 1523 1524 1525 1526 1527 1528 1529 1530 1531 1531 1532 1533 1534 1535 1536 1537 1538 1538 1539 1540 1541 1542 1542 1543 1544 1545 1545 1546 1546 1546 1546 1547 1547 1547 1548 1548 1549 1549 1549 1550 1550 1550 1551 1551 1551 1551 1551 1551 1551 1551 1550 1550 1550 1550 1550 1550 1550 1550 1550 1550 1550
1509 1511 1512 1514 1515 1516 1518 1520 1521 1522 1523 1524 1525 1526 1527 1528 1529 1530 1531 1532 1533 1534 1534 1535 1536 1537 1537 1538 1539 1540 1541 1542 1542 1543 1544 1544 1545 1545 1545 1546 1546 1546 1547 1547 1547 1548 1548 1549 1549 1550 1550 1550 1550 1550 1550 1550 1550 1550 1550 1550 1550 1550 1549 1549 1549 1549 1549 1549 1549
1507 1509 1510 1512 1513 1515 1516 1518 1519 1520 1521 1523 1524 1525 1526 1527 1528 1529 1530 1530 1531 1532 1533 1534 1534 1535 1536 1536 1537 1538 1539 1540 1541 1541 1542 1543 1543 1544 1544 1544 1545 1545 1546 1546 1546 1547 1547 1548 1548 1549 1549 1549 1549 1549 1549 1549 1549 1549 1549 1549 1549 1549 1549 1548 1548 1548 1548 1548 1548
1505 1506 1508 1510 1511 1513 1515 1516 1517 1519 1520 1521 1522 1523 1524 1525 1526 1527 1528 1529 1530 1531 1531 1532 1533 1533 1534 1535 1536 1536 1537 1538 1539 1540 1540 1541 1541 1542 1542 1543 1543 1544 1544 1545 1545 1546 1546 1547 1547 1547 1548 1548 1548 1548 1548 1548 1548 1548 1548 1548 1548 1548 1548 1547 1547 1547 1547 1547 1547
1503 1505 1506 1508 1510 1511 1513 1514 1516 1517 1518 1520 1521 1521 1523 1524 1525 1525 1526 1527 1528 1529 1530 1531 1531 1532 1532 1533 1534 1535 1535 1536 1537 1537 1538 1539 1540 1540 1541 1541 1542 1542 1543 1543 1544 1544 1545 1546 1546 1546 1547 1547 1547 1547 1547 1547 1547 1547 1547 1547 1547 1547 1547 1547 1546 1546 1546 1546 1546
1501 1503 1505 1506 1508 1509 1511 1512 1514 1515 1516 1517 1519 1520 1521 1522 1523 1523 1524 1525 1526 1527 1528 1529 1529 1530 1531 1531 1532 1533 1533 1534 1535 1536 1536 1537 1538 1538 1539 1540 1541 1541 1541 1542 1542 1543 1543 1544 1545 1545 1546 1546 1546 1546 1546 1546 1546 1546 1546 1546 1546 1546 1546 1546 1546 1546 1546 1546 1546
1499 1501 1503 1504 1506 1507 1509 1511 1512 1513 1514 1516 1517 1518 1519 1520 1521 1521 1522 1523 1524 1525 1526 1527 1527 1528 1529 1530 1530 1531 1531 1532 1533 1534 1534 1535 1536 1536 1537 1538 1539 1540 1540 1540 1541 1541 1542 1542 1543 1544 1544 1545 1545 1545 1545 1545 1545 1546 1546 1546 1545 1545 1545 1545 1545 1545 1545 1545 1545
1497 1499 1501 1502 1504 1506 1507 1509 1510 1511 1512 1514 1515 1516 1517 1518 1519 1520 1521 1521 1522 1523 1524 1525 1526 1526 1527 1528 1529 1529 1530 1531 1531 1532 1533 1533 1534 1535 1536 1536 1537 1538 1538 1539 1539 1540 1541 1541 1541 1542 1543 1543 1543 1544 1544 1544 1544 1544 1544 1544 1544 1544 1544 1544 1544 1544 1543 1543 1543
1496 1497 1499 1500 1502 1504 1505 1506 1508 1509 1510 1511 1513 1514 1515 1516 1516 1518 1519 1520 1521 1522 1522 1523 1524 1525 1526 1526 1527 1528 1528 1529 1530 1531 1531 1532 1532 1533 1534 1535 1536 1536 1537 1537 1538 1538 1539 1539 1540 1541 1541 1541 1542 1542 1542 1543 1543 1543 1543 1543 1543 1543 1543 1543 1543 1542 1542 1542 1542
1493 1495 1496 1498 1500 1501 1503 1504 1506 1507 1508 1509 1511 1511 1512 1513 1515 1516 1517 1518 1519 1520 1521 1521 1522 1523 1524 1525 1526 1526 1527 1528 1528 1529 1530 1531 1531 1532 1532 1533 1534 1535 1535 1536 1536 1537 1537 1538 1538 1539 1539 1540 1540 1541 1541 1541 1541 1542 1542 1542 1542 1542 1542 1542 1542 1541 1541 1541 1541
1491 1493 1494 1496 1498 1499 1501 1502 1503 1505 1506 1507 1508 1509 1510 1511 1512 1514 1515 1516 1517 1518 1519 1519 1520 1521 1522 1523 1524 1525 1525 1526 1527 1528 1529 1529 1530 1531 1531 1532 1532 1533 1534 1534 1535 1535 1536 1536 1537 1537 1538 1538 1539 1539 1540 1540 1540 1540 1541 1541 1541 1541 1541 1541 1541 1541 1540 1540 1540
1489 1490 1492 1494 1495 1497 1498 1500 1501 1502 1504 1505 1506 1507 1508 1509 1510 1511 1513 1514 1515 1516 1516 1517 1518 1520 1521 1521 1522 1523 1524 1525 1526 1526 1527 1528 1529 1529 1530 1531 1531 1531 1532 1533 1533 1534 1534 1535 1535 1536 1536 1536 1537 1537 1538 1538 1539 1539 1539 1539 1540 1540 1540 1540 1539 1539 1539 1539 1539
1486 1488 1490 1491 1493 1495 1496 1497 1499 1500 1501 1503 1504 1505 1506 1507 1508 1509 1511 1512 1513 1514 1515 1516 1517 1518 1519 1520 1521 1521 1522 1523 1524 1525 1526 1527 1527 1528 1529 1529 1530 1530 1531 1531 1532 1533 1533 1534 1534 1534 1535 1535 1536 1536 1536 1537 1537 1538 1538 1538 1538 1538 1538 1538 1538 1538 1538 1538 1538
1484 1486 1487 1489 1491 1492 1494 1495 1497 1498 1499 1501 1502 1503 1504 1505 1506 1507 1508 1510 1511 1512 1513 1514 1515 1516 1517 1518 1519 1520 1521 1521 1522 1523 1524 1525 1526 1526 1527 1528 1528 1529 1530 1530 1531 1531 1532 1532 1533 1533 1533 1534 1534 1535 1535 1536 1536 1536 1536 1537 1537 1537 1537 1537 1537 1537 1537 1537 1536
1481 1483 1485 1487 1488 1490 1491 1493 1494 1496 1497 1498 1499 1501 1501 1503 1504 1505 1507 1508 1509 1510 1511 1513 1514 1515 1516 1516 1517 1518 1519 1520 1521 1522 1523 1524 1524 1525 1526 1526 1527 1528 1528 1529 1530 1530 1531 1531 1531 1532 1532 1532 1533 1533 1534 1534 1535 1535 1535 1535 1536 1536 1536 1535 1535 1536 1536 1536 1535
1479 1481 1483 1485 1486 1487 1489 1491 1492 1493 1495 1496 1497 1498 1499 1501 1502 1504 1505 1506 1507 1509 1510 1511 1512 1513 1514 1515 1516 1517 1518 1519 1520 1521 1521 1522 1523 1524 1524 1525 1526 1526 1527 1528 1528 1529 1530 1530 1530 1531 1531 1531 1531 1532 1532 1533 1533 1534 1534 1534 1534 1534 1534 1534 1534 1534 1534 1534 1534
1477 1479 1481 1482 1483 1485 1486 1488 1489 1491 1492 1493 1494 1496 1497 1499 1501 1502 1503 1505 1506 1507 1508 1510 1511 1511 1512 1513 1514 1515 1516 1517 1518 1519 1520 1521 1521 1522 1523 1524 1525 1525 1526 1526 1527 1528 1528 1529 1529 1529 1530 1530 1530 1531 1531 1532 1532 1532 1532 1533 1533 1533 1533 1533 1533 1533 1533 1533 1533
1475 1476 1478 1479 1481 1482 1484 1485 1486 1488 1489 1491 1492 1494 1496 1498 1499 1501 1502 1503 1504 1506 1507 1508 1509 1510 1511 1512 1513 1514 1515 1516 1517 1518 1519 1519 1520 1521 1522 1523 1523 1524 1525 1525 1526 1526 1527 1527 1527 1528 1528 1528 1529 1529 1530 1530 1531 1531 1531 1531 1531 1531 1531 1531 1531 1531 1531 1531 1531
1472 1474 1475 1476 1478 1480 1481 1482 1484 1485 1487 1489 1491 1493 1495 1496 1498 1499 1500 1501 1503 1504 1505 1506 1507 1508 1510 1511 1512 1513 1514 1515 1516 1516 1517 1518 1519 1520 1521 1521 1522 1523 1523 1524 1525 1525 1526 1526 1526 1526 1527 1527 1527 1528 1528 1528 1529 1529 1530 1530 1530 1530 1530 1530 1530 1530 1530 1530 1529
1470 1471 1473 1474 1476 1477 1479 1480 1482 1484 1486 1488 1490 1492 1494 1495 1496 1497 1499 1500 1501 1502 1503 1505 1506 1507 1508 1509 1511 1511 1512 1513 1514 1515 1516 1517 1518 1519 1519 1520 1521 1521 1522 1523 1523 1524 1524 1525 1525 1525 1526 1526 1526 1526 1526 1526 1527 1527 1528 1528 1528 1528 1529 1528 1528 1528 1528 1528 1528
1467 1469 1471 1472 1474 1475 1477 1479 1481 1483 1486 1487 1489 1491 1492 1494 1495 1496 1497 1498 1500 1501 1502 1504 1505 1506 1507 1508 1509 1510 1511 1512 1513 1514 1515 1516 1517 1517 1518 1519 1520 1520 1521 1521 1522 1522 1523 1523 1523 1524 1524 1524 1524 1525 1525 1525 1525 1526 1526 1526 1526 1526 1526 1527 1527 1527 1526 1526 1526
1465 1467 1468 1470 1472 1474 1476 1478 1481 1483 1485 1486 1488 1489 1491 1492 1493 1495 1496 1497 1498 1500 1501 1502 1504 1505 1506 1507 1508 1509 1510 1511 1512 1513 1514 1515 1516 1516 1517 1518 1519 1519 1520 1520 1521 1521 1521 1522 1522 1522 1522 1523 1523 1523 1523 1524 1524 1524 1524 1524 1524 1524 1525 1525 1525 1525 1525 1525 1524
1464 1465 1467 1469 1471 1474 1476 1478 1480 1482 1483 1485 1486 1488 1489 1491 1492 1493 1495 1496 1497 1499 1500 1501 1502 1503 1505 1506 1507 1508 1509 1510 1511 1512 1513 1514 1515 1515 1516 1516 1517 1518 1518 1519 1519 1520 1520 1520 1521 1521 1521 1521 1521 1522 1522 1522 1522 1522 1522 1522 1522 1522 1522 1523 1523 1523 1523 1523 1523
1463 1465 1467 1469 1471 1473 1476 1477 1479 1481 1482 1484 1485 1486 1488 1489 1491 1492 1494 1495 1496 1497 1499 1500 1501 1502 1504 1505 1506 1507 1508 1509 1510 1511 1512 1513 1513 1514 1515 1515 1516 1517 1517 1517 1518 1518 1518 1519 1519 1519 1520 1520 1520 1520 1521 1521 1521 1521 1521 1521 1521 1521 1521 1521 1521 1521 1521 1521 1521
1463 1465 1467 1469 1471 1473 1475 1476 1478 1479 1481 1482 1484 1485 1487 1488 1490 1491 1492 1494 1495 1496 1498 1499 1500 1501 1502 1504 1505 1506 1507 1508 1509 1510 1511 1511 1512 1513 1513 1514 1515 1515 1516 1516 1516 1517 1517 1517 1517 1518 1518 1518 1518 1519 1519 1519 1519 1519 1519 1519 1519 1519 1519 1519 1519 1520 1520 1519 1519
1463 1465 1467 1469 1470 1472 1473 1475 1477 1478 1480 1481 1483 1484 1486 1487 1489 1490 1492 1493 1494 1496 1497 1498 1499 1501 1501 1503 1504 1505 1506 1507 1508 1509 1509 1510 1511 1511 1512 1512 1513 1514 1514 1515 1515 1515 1515 1516 1516 1516 1516 1516 1516 1517 1517 1517 1517 1517 1517 1518 1518 1518 1518 1518 1518 1518 1518 1518 1518
1463 1465 1466 1468 1469 1471 1472 1474 1476 1478 1479 1481 1482 1484 1485 1486 1488 1490 1491 1492 1494 1495 1496 1497 1498 1500 1501 1501 1503 1504 1505 1506 1506 1507 1508 1509 1510 1510 1511 1511 1511 1512 1512 1513 1513 1513 1514 1514 1514 1514 1514 1515 1515 1515 1515 1515 1516 1516 1516 1516 1516 1516 1516 1516 1516 1516 1516 1516 1516
1463 1464 1465 1467 1468 1470 1472 1474 1475 1477 1479 1480 1481 1483 1485 1486 1487 1489 1490 1491 1493 1494 1495 1496 1497 1499 1500 1501 1501 1503 1504 1504 1505 1506 1507 1508 1508 1509 1509 1510 1510 1511 1511 1511 1511 1511 1512 1512 1512 1512 1512 1513 1513 1513 1513 1513 1514 1514 1514 1514 1514 1515 1515 1515 1515 1515 1515 1515 1515
1462 1463 1465 1466 1468 1470 1471 1473 1475 1476 1478 1480 1481 1482 1484 1486 1487 1488 1490 1491 1492 1493 1494 1495 1496 1497 1499 1500 1501 1501 1502 1503 1504 1505 1506 1506 1507 1508 1508 1508 1509 1509 1509 1509 1509 1510 1510 1510 1510 1511 1511 1511 1511 1511 1511 1512 1512 1512 1512 1513 1513 1513 1513 1513 1513 1514 1514 1514 1514
1461 1463 1464 1466 1468 1470 1471 1473 1475 1476 1478 1479 1481 1482 1484 1486 1487 1488 1489 1490 1491 1492 1493 1494 1496 1496 1497 1499 1500 1501 1501 1502 1503 1504 1505 1505 1506 1506 1506 1507 1507 1507 1507 1508 1508 1508 1508 1509 1509 1509 1509 1509 1510 1510 1510 1510 1510 1511 1511 1511 1511 1511 1511 1512 1512 1512 1512 1512 1512
1461 1463 1464 1466 1468 1470 1471 1473 1474 1476 1477 1479 1481 1482 1484 1485 1486 1487 1488 1489 1491 1491 1492 1494 1495 1496 1497 1498 1499 1500 1500 1501 1502 1502 1503 1504 1504 1505 1505 1505 1506 1506 1506 1506 1506 1507 1507 1507 1507 1507 1508 1508 1508 1508 1509 1509 1509 1509 1509 1510 1510 1510 1510 1510 1511 1511 1511 1511 1511
1462 1463 1465 1466 1468 1470 1471 1473 1475 1476 1477 1479 1481 1482 1483 1484 1485 1486 1488 1489 1490 1491 1492 1493 1494 1495 1496 1497 1498 1498 1499 1500 1501 1501 1501 1502 1503 1503 1503 1504 1504 1504 1505 1505 1505 1505 1506 1506 1506 1506 1506 1506 1507 1507 1507 1507 1507 1508 1508 1508 1508 1508 1509 1509 1509 1509 1509 1509 1509
1462 1464 1466 1467 1469 1470 1472 1473 1475 1476 1477 1479 1480 1481 1483 1484 1485 1486 1487 1488 1489 1490 1491 1492 1493 1494 1495 1496 1497 1497 1498 1499 1499 1500 1500 1501 1501 1502 1502 1502 1503 1503 1504 1504 1504 1504 1504 1505 1505 1505 1505 1505 1506 1506 1506 1506 1506 1506 1506 1507 1507 1507 1507 1507 1507 1507 1507 1508 1508
1463 1465 1466 1468 1469 1471 1472 1473 1475 1476 1477 1479 1480 1481 1482 1483 1485 1486 1487 1488 1489 1490 1491 1492 1492 1493 1494 1495 1496 1496 1497 1497 1498 1498 1499 1499 1500 1501 1501 1501 1502 1502 1502 1503 1503 1503 1503 1503 1504 1504 1504 1504 1504 1504 1505 1505 1505 1505 1505 1505 1505 1505 1506 1506 1506 1506 1506 1506 1506
1464 1466 1467 1469 1470 1471 1472 1474 1475 1476 1477 1479 1480 1481 1482 1483 1484 1485 1486 1487 1488 1489 1490 1491 1491 1492 1493 1494 1495 1495 1496 1496 1497 1497 1498 1498 1499 1499 1500 1500 1501 1501 1501 1501 1502 1502 1502 1502 1502 1502 1502 1502 1503 1503 1503 1503 1503 1503 1503 1504 1504 1504 1504 1504 1504 1504 1504 1504 1504